CAPE
322 106 0 9 101 380 40 136 360 411 509 815 1352 1111 1020 1242 952 1149 837 675 929 778 661 674 795 1057 982 616 1033 1144 877 120 216 61 15 530 859 690 487 413 621 517 409
373 318 78 0 4 431 373 94 162 460 518 1291 1401 1408 1373 1476 943 978 882 954 966 970 841 897 1118 1506 1342 834 1039 1188 915 868 770 991 323 524 686 973 1288 1285 1429 1531 1518
369 367 376 34 0 87 469 372 3 354 417 1352 1404 1562 1531 1522 1511 1245 1028 860 1005 1279 1013 920 1127 1252 1326 990 933 1205 998 1025 802 989 1701 903 1408 1445 1442 1127 1196 1343 1557
471 438 505 535 104 0 157 265 319 0 283 477 1415 1428 1376 1313 1236 1357 1469 1240 955 1012 1147 986 1079 1284 1341 1487 1449 1483 1458 1743 1573 1375 1231 1298 1322 1523 1096 1453 1650 930 1397
631 663 429 730 677 164 0 142 32 310 249 644 727 1317 1363 1304 1271 1106 1150 1204 1312 1323 1302 1462 1482 1483 1711 1658 1668 1765 1839 1746 1642 1730 1794 1768 1924 2026 2047 1547 1437 1330 1090
794 834 802 548 837 774 264 11 29 5 497 592 1146 1078 1285 1423 1387 1049 1071 1183 1266 1328 1355 1356 1404 1613 1559 1570 1553 2121 1981 1997 2011 2020 2153 2316 2303 1561 1313 1276 1148 1148 1618
810 1072 1108 1032 844 856 928 432 213 68 0 601 574 1114 1292 1536 1510 1002 830 1014 1125 1454 1478 1454 1479 1810 1768 1643 1466 742 399 1233 2055 2269 2066 1881 1600 1401 1263 1253 1349 1350 1549
543 1106 1515 1438 1300 1104 997 1092 797 534 36 63 982 665 770 1170 1503 903 479 929 971 759 1249 1658 1634 1606 1464 1411 1432 1469 1378 1058 386 70 389 948 1068 1200 1275 1598 1630 1509 1696
117 71 481 1627 1589 1397 1241 1166 1123 977 656 185 248 1215 1312 1167 1052 901 48 797 1106 1016 685 871 1369 1458 1469 1266 1218 1297 1271 1368 1618 1352 759 688 589 749 698 913 1555 1690 1897
109 75 250 521 1436 1570 1498 1364 1307 1126 1091 913 644 476 695 1177 1366 547 0 1017 799 832 830 686 706 1282 1499 1236 851 1243 1232 1304 1014 617 658 414 56 175 257 50 1214 1455 1583
0 0 18 154 1242 1506 1571 1460 1432 1389 1216 1250 1185 1011 1123 1202 1378 586 0 1166 1383 915 608 606 603 653 184 201 122 954 1114 1162 1098 887 1081 1317 1548 1748 1767 1294 308 880 1149
2 0 0 85 1300 1362 1519 1517 1376 1342 1418 1212 1271 1399 1269 1344 1262 754 6 51 1534 1583 1353 909 781 587 241 0 0 48 770 226 192 416 857 1148 1258 1291 1262 1232 1410 726 1024
3 3 1 4 876 1345 1504 1435 1472 1341 1426 1413 1213 1164 1409 1477 1538 828 51 0 4 1154 1756 1535 1064 791 252 0 0 0 0 0 0 104 487 844 1026 911 1041 1462 2130 2391 2574
3 1 1 20 938 1454 1451 1411 1431 1453 1375 1366 1462 1380 1321 1438 1704 1785 200 0 0 0 670 1008 856 127 157 139 0 0 0 0 0 135 447 601 577 1007 1491 1961 2786 2544 2081
1 1 2 67 679 1991 1471 1485 1546 1545 1545 1515 1545 1548 1639 1670 1724 1909 1993 1236 728 332 443 680 173 52 322 150 276 506 38 0 0 5 143 427 873 1436 2015 2181 2159 1725 1881
3 1 3 3 29 1993 1975 356 1 171 1085 1437 1584 1692 1785 1749 1928 1927 1698 1412 1097 337 5 1155 1049 1155 985 1205 1306 1026 1077 488 316 352 663 1103 1565 1873 2368 2141 2015 1591 1699
3 2 2 2 14 1426 2448 1521 1445 13 2 1 350 1602 1916 1641 1231 801 1049 408 2 1 1473 982 1307 1211 1263 1264 1322 1310 1399 1257 1340 989 1379 1790 2039 2280 2258 2252 1629 1670 1713
1 0 2 4 4 342 1492 2500 1880 1261 1619 901 2 25 4 50 1296 505 0 1 0 1 924 1227 1194 1344 1290 1324 1352 1405 1418 1229 1823 1934 2116 2256 2043 1985 1813 1780 1737 1929 1764
2 3 4 5 3 154 505 1656 1912 1352 1179 1141 1 1 1 1 2 2 1 85 135 83 516 1189 1155 1370 1366 1516 1711 1730 1700 1608 1360 1522 1150 688 946 953 1202 1230 1429 1532 1363
4 2 3 4 5 3 62 639 1701 1821 1358 580 180 409 0 0 79 75 74 258 451 416 754 1060 1026 777 856 219 17 103 529 530 756 1123 1056 743 137 8 0 506 230 112 0
4 4 4 5 4 4 3 3 324 1559 1340 390 305 93 0 632 923 655 59 13 9 1 26 277 304 13 0 0 6 4 3 158 383 713 271 0 0 1 104 17 0 0 0
3 4 3 5 3 3 4 2 3 17 487 437 1 1 1 71 226 57 3 3 5 4 0 0 0 0 2 3 1 0 0 0 0 0 0 0 0 0 0 0 0 0 0
3 2 3 3 4 1 3 4 2 2 2 13 2 2 2 3 2 2 3 2 2 1 1 0 1 0 0 0 0 0 0 0 0 0 0 0 0 0 0 0 0 0 0
4 2 4 4 5 4 1 3 4 2 7 2 1 3 9 11 12 9 2 1 1 0 0 0 0 0 0 0 0 0 0 0 0 0 0 0 0 0 0 0 0 0 0
3 3 3 4 4 2 2 1 1 5 4 6 5 4 4 6 7 3 3 1 0 0 0 0 0 0 0 0 0 0 0 0 0 0 0 0 0 0 0 0 0 0 0
2 4 4 3 4 2 2 1 1 4 3 4 7 8 6 2 3 2 2 3 3 4 2 0 0 0 0 0 0 0 0 0 0 0 0 0 0 0 0 0 0 0 0
CIN
-228 -225 -0 -206 -184 -202 -276 -208 -166 -180 -168 -129 -115 -126 -117 -106 -125 -111 -130 -143 -126 -130 -144 -136 -123 -141 -134 -182 -146 -140 -178 -379 -267 -246 -209 -341 -257 -295 -371 -467 -438 -451 -518
-233 -213 -235 -0 -36 -140 -194 -260 -216 -146 -177 -126 -136 -128 -106 -91 -134 -131 -122 -110 -118 -119 -122 -127 -97 -78 -100 -163 -136 -106 -147 -204 -195 -156 -378 -311 -291 -252 -243 -278 -249 -261 -305
-252 -210 -203 -78 -0 -222 -137 -222 -57 -179 -175 -115 -127 -113 -99 -94 -98 -120 -130 -142 -127 -94 -110 -128 -101 -94 -92 -138 -165 -127 -162 -170 -231 -200 -137 -300 -233 -215 -233 -337 -314 -295 -274
-273 -207 -183 -203 -266 -0 -198 -167 -232 -0 -203 -189 -113 -105 -101 -105 -114 -111 -110 -126 -148 -146 -122 -142 -120 -106 -96 -77 -95 -97 -111 -91 -129 -171 -210 -226 -257 -235 -339 -272 -240 -447 -328
-268 -223 -186 -168 -182 -226 -0 -213 -318 -233 -224 -142 -145 -99 -103 -98 -99 -118 -114 -117 -113 -115 -132 -104 -99 -100 -79 -89 -81 -78 -74 -85 -105 -109 -128 -158 -164 -154 -131 -262 -319 -356 -423
-253 -215 -172 -181 -152 -172 -280 -355 -310 -159 -178 -154 -119 -109 -92 -63 -73 -124 -125 -120 -124 -113 -111 -144 -137 -86 -110 -113 -125 -60 -69 -66 -79 -79 -81 -76 -117 -221 -308 -313 -355 -376 -301
-179 -137 -117 -104 -153 -148 -132 -226 -283 -359 -0 -153 -170 -106 -99 -86 -64 -136 -170 -124 -139 -121 -120 -108 -119 -78 -96 -107 -129 -271 -391 -233 -82 -53 -89 -141 -185 -244 -303 -337 -325 -340 -292
-213 -118 -92 -52 -78 -130 -101 -123 -175 -213 -252 -363 -101 -162 -140 -113 -80 -162 -239 -141 -131 -191 -150 -122 -113 -109 -140 -137 -134 -136 -161 -231 -426 -295 -474 -292 -273 -288 -331 -252 -285 -339 -303
-489 -536 -212 -26 -43 -84 -110 -111 -133 -154 -191 -307 -292 -81 -70 -114 -148 -178 -447 -164 -112 -153 -221 -199 -141 -139 -153 -161 -136 -140 -168 -196 -169 -216 -345 -402 -473 -443 -490 -472 -301 -271 -254
-517 -608 -374 -176 -31 -65 -100 -113 -128 -148 -164 -141 -180 -229 -183 -114 -100 -262 -0 -111 -148 -171 -186 -244 -250 -162 -155 -203 -218 -142 -166 -214 -231 -350 -401 -547 -279 -728 -699 -328 -386 -313 -281
-0 -0 -579 -444 -77 -55 -94 -124 -104 -136 -138 -121 -104 -127 -117 -133 -115 -281 -0 -105 -78 -171 -245 -248 -285 -297 -448 -434 -551 -172 -193 -192 -218 -323 -341 -329 -302 -267 -267 -400 -724 -499 -392
-0 -0 -0 -531 -115 -77 -93 -109 -119 -109 -126 -139 -112 -88 -108 -113 -157 -260 -77 -51 -99 -72 -118 -210 -220 -253 -400 -0 -0 -156 -287 -434 -430 -472 -388 -343 -337 -335 -349 -359 -340 -577 -471
-0 -0 -0 -588 -183 -117 -111 -128 -97 -113 -111 -119 -138 -137 -120 -105 -100 -269 -569 -0 -23 -151 -92 -131 -188 -225 -355 -0 -0 -0 -0 -0 -0 -619 -500 -414 -373 -446 -392 -322 -194 -135 -107
-0 -0 -0 -523 -216 -140 -118 -131 -114 -114 -130 -98 -117 -137 -149 -122 -110 -110 -513 -0 -0 -0 -308 -227 -248 -468 -471 -489 -0 -0 -0 -0 -0 -649 -535 -500 -547 -438 -313 -207 -83 -75 -121
-0 -0 -0 -544 -301 -84 -125 -158 -151 -154 -136 -116 -138 -124 -132 -139 -167 -127 -115 -233 -329 -450 -356 -248 -521 -603 -401 -501 -449 -410 -274 -0 -0 -756 -673 -555 -438 -306 -187 -146 -128 -186 -150
-0 -0 -0 -0 -566 -109 -109 -547 -0 -133 -222 -130 -131 -107 -120 -139 -114 -122 -149 -231 -294 -447 -159 -141 -174 -177 -221 -200 -204 -279 -278 -450 -540 -537 -458 -322 -209 -153 -112 -145 -138 -176 -134
-0 -0 -0 -0 -99 -127 -33 -166 -181 -448 -0 -29 -498 -124 -96 -163 -214 -343 -270 -411 -13 -0 -124 -196 -154 -192 -203 -200 -193 -221 -226 -271 -253 -344 -237 -166 -114 -66 -70 -84 -146 -90 -67
-0 -0 -0 -0 -0 -387 -120 -27 -95 -204 -155 -327 -0 -339 -407 -660 -196 -432 -0 -0 -0 -0 -227 -173 -203 -196 -200 -190 -166 -162 -178 -211 -112 -101 -93 -77 -78 -78 -84 -83 -85 -66 -78
-0 -0 -0 -0 -0 -461 -300 -108 -87 -169 -218 -203 -0 -0 -0 -0 -0 -0 -0 -605 -490 -550 -338 -200 -233 -200 -188 -151 -100 -89 -103 -90 -106 -97 -143 -271 -159 -94 -23 -66 -72 -69 -79
-0 -0 -0 -0 -0 -0 -364 -264 -112 -97 -146 -325 -528 -437 -0 -0 -514 -539 -703 -449 -376 -415 -309 -237 -216 -253 -242 -469 -108 -67 -292 -261 -170 -141 -169 -210 -464 -95 -0 -5 -171 -213 -0
-0 -0 -0 -0 -0 -0 -0 -0 -325 -120 -125 -362 -414 -599 -0 -280 -236 -304 -635 -624 -384 -0 -562 -387 -348 -132 -0 -0 -15 -17 -18 -434 -315 -228 -283 -0 -0 -16 -233 -238 -0 -0 -0
-0 -0 -0 -0 -0 -0 -0 -0 -0 -380 -254 -278 -0 -0 -0 -443 -306 -329 -0 -0 -0 -0 -0 -0 -0 -0 -0 -0 -0 -0 -0 -0 -0 -0 -0 -0 -0 -0 -0 -0 -0 -0 -0
-0 -0 -0 -0 -0 -0 -0 -0 -0 -0 -0 -188 -0 -0 -0 -0 -0 -0 -0 -0 -0 -0 -0 -0 -0 -0 -0 -0 -0 -0 -0 -0 -0 -0 -0 -0 -0 -0 -0 -0 -0 -0 -0
-0 -0 -0 -0 -0 -0 -0 -0 -0 -0 -0 -0 -0 -0 -0 -0 -0 -0 -0 -0 -0 -0 -0 -0 -0 -0 -0 -0 -0 -0 -0 -0 -0 -0 -0 -0 -0 -0 -0 -0 -0 -0 -0
-0 -0 -0 -0 -0 -0 -0 -0 -0 -0 -0 -0 -0 -0 -0 -0 -0 -0 -0 -0 -0 -0 -0 -0 -0 -0 -0 -0 -0 -0 -0 -0 -0 -0 -0 -0 -0 -0 -0 -0 -0 -0 -0
-0 -0 -0 -0 -0 -0 -0 -0 -0 -0 -0 -0 -0 -0 -0 -0 -0 -0 -0 -0 -0 -0 -0 -0 -0 -0 -0 -0 -0 -0 -0 -0 -0 -0 -0 -0 -0 -0 -0 -0 -0 -0 -0
Wind_Speed
17 16 15 13 10 6 7 8 7 5 8 8 11 10 9 8 7 6 6 6 6 5 4 5 6 4 3 2 2 0 1 2 3 4 2 2 3 4 6 4 5 6 8
17 16 16 14 13 9 8 8 7 7 6 7 10 11 11 10 8 8 8 6 7 6 7 5 6 3 5 4 2 4 2 3 3 3 2 3 4 4 5 6 6 5 5
18 17 16 16 15 16 13 9 7 8 7 7 8 12 11 11 10 10 9 7 7 7 7 7 7 6 6 4 4 4 3 2 2 2 4 2 3 2 4 3 5 5 4
18 18 17 18 17 16 16 12 8 9 9 9 8 10 10 11 11 11 10 8 7 7 7 7 7 7 7 7 5 6 4 4 3 3 3 4 3 4 2 3 5 2 5
19 18 19 16 16 15 16 16 12 10 11 10 11 9 10 10 9 11 10 9 8 7 7 7 7 8 11 10 6 6 5 4 4 4 4 3 3 3 3 2 4 6 5
18 20 18 18 16 17 16 17 15 15 13 10 11 12 12 10 12 14 11 8 8 8 9 7 7 9 11 13 14 11 8 6 6 4 4 7 7 4 3 3 3 3 5
9 16 17 17 18 17 15 16 16 16 15 15 13 10 11 12 14 15 16 9 8 10 9 9 7 8 9 7 10 13 12 12 12 7 8 8 8 9 4 4 5 4 5
5 12 16 16 17 17 17 17 17 14 16 15 15 15 14 12 13 16 16 12 9 10 11 11 11 11 8 8 7 7 8 8 9 8 11 14 12 12 7 9 7 5 5
5 7 8 13 17 17 19 18 16 15 14 15 15 14 15 15 15 17 13 11 12 12 10 11 12 12 12 14 9 9 9 10 8 13 13 14 14 14 12 1 7 4 6
2 6 7 12 14 17 19 19 17 16 16 13 15 15 16 16 15 17 15 10 11 10 10 10 15 15 14 14 12 11 11 14 8 6 6 7 11 10 13 9 6 6 5
7 8 10 13 18 20 19 15 17 16 15 15 16 14 15 16 16 18 19 13 12 10 10 10 9 16 19 16 17 12 13 12 8 6 6 6 5 5 5 5 7 7 5
9 7 11 12 13 15 19 17 17 16 15 15 14 12 12 14 16 17 20 22 18 13 12 10 12 15 17 18 11 15 17 11 4 4 4 8 6 6 6 6 6 7 8
8 9 11 11 11 16 17 17 13 15 13 13 13 13 11 11 11 19 20 22 22 14 13 14 14 14 15 12 17 17 8 5 7 7 9 10 9 8 6 4 4 5 5
10 10 9 9 12 13 13 13 13 13 13 13 12 12 11 10 11 11 11 11 19 15 17 12 9 9 11 10 6 6 6 7 8 9 9 8 3 4 4 3 4 3 2
11 10 11 8 14 11 12 12 13 15 15 15 13 12 12 12 13 13 12 11 11 14 10 8 3 4 5 5 4 6 5 4 6 7 6 6 5 3 3 4 4 3 5
13 7 7 10 11 9 8 5 9 3 14 16 15 14 12 14 14 17 17 18 18 12 5 9 10 9 10 11 11 8 8 8 8 7 7 6 5 5 6 4 3 3 4
8 8 8 9 9 8 9 9 11 2 6 2 14 17 16 13 15 14 17 16 8 12 9 8 9 9 10 9 9 9 10 9 8 7 6 7 6 5 5 4 3 3 4
11 11 7 8 9 8 6 7 7 10 11 6 1 8 10 11 17 15 9 11 3 5 8 8 10 9 9 9 7 7 7 5 5 4 4 3 4 3 3 4 4 4 4
9 7 9 8 8 9 7 6 7 8 7 6 2 1 5 9 4 9 15 5 8 7 10 11 10 9 8 6 4 4 5 4 3 3 3 3 3 3 7 5 5 4 4
9 13 11 8 8 7 6 5 6 6 7 7 7 8 7 5 6 6 6 4 5 5 7 8 5 4 4 5 5 4 4 4 4 2 4 4 5 5 14 16 5 4 3
6 7 14 7 7 7 7 7 5 6 8 8 7 4 5 7 9 8 5 2 3 4 2 3 3 3 1 3 5 4 4 6 7 6 6 3 6 7 11 7 4 4 3
5 5 6 7 6 8 9 8 8 5 2 7 6 4 6 2 5 7 8 7 7 6 6 7 8 7 6 6 6 5 3 4 3 4 5 4 3 4 4 4 4 2 2
5 6 7 6 6 9 9 9 9 10 8 9 7 8 7 6 9 9 10 10 8 8 8 9 9 7 6 6 6 5 4 1 1 3 7 5 1 2 1 2 1 1 1
6 9 8 7 7 7 8 10 10 12 10 9 11 11 10 10 10 11 10 9 12 9 10 11 10 11 7 7 7 7 6 5 4 2 5 3 4 3 3 2 0 3 4
8 8 6 6 6 7 9 9 12 10 10 10 9 11 12 10 11 11 10 11 10 11 12 12 10 13 14 13 12 14 13 15 7 3 1 5 6 5 3 2 0 1 1
10 7 6 6 7 8 10 7 11 9 8 11 10 10 11 12 8 10 9 10 11 9 8 11 12 18 15 13 14 15 12 13 12 8 5 7 8 6 5 5 6 3 4
Wind_Direction
188 194 198 207 221 206 204 211 211 209 200 194 195 187 187 191 196 196 202 203 207 219 223 216 244 238 256 276 281 49 126 152 190 297 261 286 299 294 301 275 267 262 264
189 192 199 200 206 216 215 213 207 202 210 195 191 188 188 194 192 204 205 201 205 216 230 219 244 247 259 223 252 275 241 186 163 273 271 286 250 291 293 309 298 278 273
189 193 195 201 202 212 221 221 213 203 201 203 192 190 190 195 196 208 211 207 204 211 216 214 229 235 257 240 215 241 256 260 205 203 276 274 271 304 318 298 286 310 310
192 196 199 198 204 210 214 215 211 222 204 207 199 202 200 198 198 200 202 209 211 210 214 212 218 210 221 234 233 226 232 243 240 239 261 266 256 285 256 274 312 315 297
193 196 204 202 199 203 211 216 211 212 224 207 206 206 201 202 205 205 203 208 211 222 217 222 222 219 212 216 215 231 219 230 245 259 271 275 274 292 266 261 271 295 284
196 203 201 202 200 201 204 208 213 215 217 211 209 205 203 207 204 194 193 203 213 215 230 227 229 225 231 227 225 220 203 218 235 224 246 257 266 245 246 265 275 307 306
220 208 206 202 203 203 203 206 210 213 218 222 218 205 210 210 202 198 199 210 211 221 224 232 233 238 221 229 234 234 237 237 235 220 239 246 267 265 256 269 259 248 258
231 211 207 206 205 202 207 207 208 205 211 215 222 220 219 218 201 204 207 217 218 223 222 222 226 236 224 213 230 243 241 237 228 225 234 256 251 265 228 265 272 271 276
47 11 332 219 211 203 206 211 209 203 208 214 215 211 216 225 202 206 198 214 225 229 223 226 223 232 231 213 224 242 253 258 244 236 233 238 248 249 252 13 278 285 293
98 11 324 303 230 212 209 208 209 208 209 211 217 216 216 221 208 207 198 217 226 231 232 232 225 227 222 211 216 230 244 253 249 253 251 251 244 251 250 216 252 245 259
316 27 310 294 249 215 213 207 208 206 209 211 218 215 213 212 218 203 198 213 223 225 231 232 231 221 231 220 212 231 233 247 243 229 238 246 245 236 244 212 204 210 216
350 309 283 286 266 217 209 208 208 207 209 213 212 215 217 217 213 205 203 206 218 225 229 231 238 217 218 221 211 230 241 247 259 243 240 255 252 243 242 234 220 212 222
316 272 284 292 276 226 209 210 206 206 206 211 211 215 214 215 220 214 203 207 218 221 230 228 222 217 221 223 225 232 227 216 235 239 243 249 242 236 240 247 247 220 230
292 292 301 293 281 232 213 206 205 205 207 212 211 214 215 213 216 217 212 212 225 216 236 235 229 214 204 218 225 220 211 214 216 228 239 244 235 208 220 212 220 162 234
318 322 319 303 292 228 218 204 208 211 205 205 208 208 206 214 218 210 206 205 213 216 215 231 196 202 214 217 221 221 206 194 206 223 230 237 236 219 229 197 200 189 201
316 318 305 303 308 269 204 199 39 4 222 211 206 205 215 219 200 202 209 203 201 166 187 215 221 220 223 228 232 232 225 216 221 215 213 216 225 220 231 205 206 211 226
287 290 301 298 301 299 226 192 205 53 71 175 220 212 208 195 207 212 212 209 194 145 211 206 215 215 221 224 226 226 235 227 217 216 210 213 219 228 214 227 185 230 252
304 294 302 305 290 288 277 227 203 198 197 200 75 224 223 230 207 211 151 120 136 221 211 204 212 210 211 213 217 225 233 222 195 197 205 219 242 230 218 224 212 217 235
304 315 320 309 289 282 273 242 207 190 200 190 137 129 116 130 134 134 161 202 206 197 202 211 210 202 202 183 181 223 221 180 189 183 132 69 24 328 307 266 267 255 250
314 332 330 323 320 322 316 289 222 198 195 193 197 205 150 147 169 180 197 189 183 188 194 205 204 186 147 149 164 175 130 125 143 161 171 157 111 9 334 276 260 232 217
315 338 341 328 327 341 341 325 289 205 190 186 198 160 172 197 179 178 139 111 75 68 59 81 91 97 177 191 211 197 205 180 160 154 146 235 211 180 175 238 220 204 177
321 358 349 336 349 4 352 344 336 350 126 155 126 121 214 217 111 84 69 57 36 45 59 81 73 49 31 15 352 16 34 106 160 111 80 48 36 120 157 176 163 132 133
338 29 5 1 352 31 13 7 12 10 343 87 90 96 69 67 78 84 91 76 59 52 44 54 65 56 46 49 37 21 33 86 151 66 72 91 62 40 192 94 87 243 214
7 36 9 3 8 32 52 26 17 21 6 40 68 71 72 67 61 62 61 63 81 48 54 61 43 37 19 29 45 25 356 341 332 71 121 120 107 73 37 51 35 240 246
19 32 22 12 6 39 47 43 42 18 28 19 61 71 72 64 71 61 59 69 57 71 61 61 55 41 33 25 35 31 354 351 347 305 98 125 120 110 113 135 112 312 311
30 15 32 29 31 37 57 40 56 40 40 54 11 62 62 71 51 75 66 63 73 58 73 72 63 57 33 30 22 16 4 2 6 360 36 56 67 50 47 56 61 67 52